Date,Time,Wetness (Wet Dry or Ice),Wind Speed (m/s),Temperature (C),Humidity (%),Pressure (mb),Radiation (W/m^2)
2020-12-20,20:20:00,DRY,3.40,6.70,43.3,778.67,0.8
2020-12-20,20:25:00,DRY,4.15,6.80,42.5,778.50,1.1
2020-12-20,20:30:00,DRY,3.30,6.80,42.7,779.00,1.1
2020-12-20,20:35:00,DRY,2.80,6.70,43.5,779.00,0.8
2020-12-20,20:40:00,DRY,3.27,6.70,44.0,779.00,0.9
2020-12-20,20:45:00,DRY,3.40,6.70,43.5,779.00,1.4
2020-12-20,20:50:00,DRY,3.23,6.87,45.3,779.00,1.4
2020-12-20,20:55:00,DRY,3.35,7.20,45.0,779.00,0.7
2020-12-20,21:00:00,DRY,4.43,7.60,42.0,779.00,1.1
2020-12-20,21:05:00,DRY,3.90,8.00,40.0,779.00,1.4
2020-12-20,21:10:00,DRY,3.90,7.93,40.3,779.00,1.1
2020-12-20,21:15:00,DRY,3.70,7.45,42.5,779.00,1.4
2020-12-20,21:20:00,DRY,2.87,7.37,41.7,779.00,0.8
2020-12-20,21:25:00,DRY,4.20,7.30,42.0,779.00,1.2
2020-12-20,21:30:00,DRY,3.50,7.30,43.3,779.00,1.2
2020-12-20,21:35:00,DRY,2.60,7.05,44.5,779.00,0.8
2020-12-20,21:40:00,DRY,3.10,7.07,43.3,779.00,1.4
2020-12-20,21:45:00,DRY,3.00,7.05,45.0,779.00,1.0
2020-12-20,21:50:00,DRY,2.90,7.27,43.3,779.00,1.5
2020-12-20,21:55:00,DRY,3.15,7.10,41.5,779.00,0.9
2020-12-20,22:00:00,DRY,2.83,7.07,42.0,779.00,1.4
2020-12-20,22:05:00,DRY,2.85,7.05,41.5,779.00,1.4
2020-12-20,22:10:00,DRY,2.73,7.20,40.0,779.00,0.9
2020-12-20,22:15:00,DRY,3.05,7.40,39.0,779.00,1.4
2020-12-20,22:20:00,DRY,3.63,7.87,36.7,779.00,1.0
2020-12-20,22:25:00,DRY,3.90,8.25,36.0,779.00,1.1
2020-12-20,22:30:00,DRY,4.73,8.50,35.3,779.00,1.7
2020-12-20,22:35:00,DRY,3.80,8.45,35.0,779.00,1.1
2020-12-20,22:40:00,DRY,3.97,8.60,35.0,779.00,1.1
2020-12-20,22:45:00,DRY,4.80,8.55,35.0,779.00,1.7
2020-12-20,22:50:00,DRY,3.90,8.63,34.3,779.00,1.1
2020-12-20,22:55:00,DRY,4.25,8.55,34.5,779.00,1.2
2020-12-20,23:00:00,DRY,4.37,8.60,34.0,779.00,1.1
2020-12-20,23:05:00,DRY,4.40,8.50,34.0,779.00,1.1
2020-12-20,23:10:00,DRY,3.90,8.63,33.7,779.00,1.0
2020-12-20,23:15:00,DRY,3.55,8.85,32.0,779.00,1.1
2020-12-20,23:20:00,DRY,3.63,8.93,31.7,779.00,1.4
2020-12-20,23:25:00,DRY,3.75,8.80,32.5,779.00,1.1
2020-12-20,23:30:00,DRY,4.10,8.80,32.3,779.00,1.0
2020-12-20,23:35:00,DRY,3.60,8.95,31.5,779.00,1.0
2020-12-20,23:40:00,DRY,3.47,9.03,31.0,779.00,0.7
2020-12-20,23:45:00,DRY,3.15,9.20,28.5,779.00,1.0
2020-12-20,23:50:00,DRY,2.80,9.13,28.3,779.00,1.5
2020-12-20,23:55:00,DRY,2.50,9.25,26.5,779.00,0.6
2020-12-21,00:00:00,DRY,2.93,9.33,23.7,779.00,0.8
2020-12-21,00:05:00,DRY,3.45,9.10,26.0,779.00,0.9
2020-12-21,00:10:00,DRY,2.73,9.37,22.7,779.00,1.2
2020-12-21,00:15:00,DRY,2.75,9.65,21.5,779.00,0.6
2020-12-21,00:20:00,DRY,2.93,9.30,23.7,779.00,1.0
2020-12-21,00:25:00,DRY,2.40,9.40,23.5,779.00,1.2
2020-12-21,00:30:00,DRY,2.73,9.33,25.3,779.00,1.2
2020-12-21,00:35:00,DRY,2.50,9.35,24.0,779.00,2.0
2020-12-21,00:40:00,DRY,2.13,9.37,24.3,779.00,1.4
2020-12-21,00:45:00,DRY,3.00,9.35,24.0,779.00,1.2
2020-12-21,00:50:00,DRY,1.97,9.53,23.0,779.00,1.4
2020-12-21,00:55:00,DRY,2.05,9.55,22.5,779.00,2.1
2020-12-21,01:00:00,DRY,2.80,9.70,21.0,779.00,1.0
2020-12-21,01:05:00,DRY,2.35,9.70,21.0,779.00,1.0
2020-12-21,01:10:00,DRY,2.73,9.57,21.7,778.67,1.6
2020-12-21,01:15:00,DRY,1.90,9.60,20.5,778.50,1.9
2020-12-21,01:20:00,DRY,1.83,9.57,21.0,778.33,1.0
2020-12-21,01:25:00,DRY,3.25,9.50,22.0,779.00,1.1
2020-12-21,01:30:00,DRY,2.40,9.40,24.0,778.00,1.0
2020-12-21,01:35:00,DRY,2.55,9.25,24.5,778.00,0.6
2020-12-21,01:40:00,DRY,2.23,9.27,23.0,778.00,1.9
2020-12-21,01:45:00,DRY,1.95,9.25,22.5,778.00,1.0
2020-12-21,01:50:00,DRY,1.80,9.37,21.0,778.00,1.1
2020-12-21,01:55:00,DRY,4.25,9.15,24.5,778.00,1.1
2020-12-21,02:00:00,DRY,3.00,8.83,27.7,778.00,0.6
2020-12-21,02:05:00,DRY,4.15,8.85,25.5,778.00,1.2
2020-12-21,02:10:00,DRY,3.13,8.90,25.3,778.00,0.9
2020-12-21,02:15:00,DRY,1.20,8.95,24.0,778.00,0.8
2020-12-21,02:20:00,DRY,1.77,9.33,21.7,778.00,0.8
2020-12-21,02:25:00,DRY,3.45,9.35,22.0,778.00,1.5
2020-12-21,02:30:00,DRY,4.07,9.40,22.0,778.00,1.4
2020-12-21,02:35:00,DRY,2.75,9.55,21.0,778.00,1.2
2020-12-21,02:40:00,DRY,2.63,9.50,21.0,778.00,1.4
2020-12-21,02:45:00,DRY,3.40,9.40,21.5,778.00,1.7
2020-12-21,02:50:00,DRY,1.93,9.23,22.0,778.00,1.6
2020-12-21,02:55:00,DRY,0.75,9.05,22.0,778.00,1.5
2020-12-21,03:00:00,DRY,1.77,9.40,20.7,778.00,1.3
2020-12-21,03:05:00,DRY,3.05,9.50,21.0,778.00,1.2
2020-12-21,03:10:00,DRY,2.43,9.47,21.3,778.00,1.0
2020-12-21,03:15:00,DRY,2.00,9.40,21.0,778.00,0.7
2020-12-21,03:20:00,DRY,2.03,9.53,20.3,778.00,0.9
2020-12-21,03:25:00,DRY,2.35,9.55,20.5,778.00,0.6
2020-12-21,03:30:00,DRY,1.93,9.57,20.0,778.00,0.9
2020-12-21,03:35:00,DRY,2.60,9.45,20.5,778.00,0.9
2020-12-21,03:40:00,DRY,2.00,9.33,21.0,778.00,1.1
2020-12-21,03:45:00,DRY,2.25,9.00,22.0,778.00,0.7
2020-12-21,03:50:00,DRY,1.10,8.93,22.0,778.00,1.3
2020-12-21,03:55:00,DRY,1.30,8.75,22.5,778.00,0.6
2020-12-21,04:00:00,DRY,1.60,8.60,23.3,778.00,1.4
2020-12-21,04:05:00,DRY,1.30,8.80,23.0,778.00,0.8
2020-12-21,04:10:00,DRY,2.07,8.73,22.7,778.00,1.4
2020-12-21,04:15:00,DRY,1.60,8.80,22.0,778.00,2.1
2020-12-21,04:20:00,DRY,2.50,9.10,22.7,778.00,1.0
2020-12-21,04:25:00,DRY,2.50,8.90,23.0,778.00,1.3
2020-12-21,04:30:00,DRY,1.97,8.47,23.7,778.00,2.0
2020-12-21,04:35:00,DRY,2.05,8.60,23.5,778.00,1.9
2020-12-21,04:40:00,DRY,4.23,8.50,24.0,778.00,1.0
2020-12-21,04:45:00,DRY,3.70,8.60,23.0,778.00,0.7
2020-12-21,04:50:00,DRY,4.23,8.73,23.3,778.00,1.3
2020-12-21,04:55:00,DRY,3.20,9.15,23.0,778.00,0.7
2020-12-21,05:00:00,DRY,2.33,9.10,22.7,778.00,1.1
2020-12-21,05:05:00,DRY,1.40,9.35,22.0,778.00,0.0
2020-12-21,05:10:00,DRY,1.30,9.40,22.3,778.00,1.0
2020-12-21,05:15:00,DRY,0.90,8.90,23.0,778.00,1.5
2020-12-21,05:20:00,DRY,1.53,8.97,22.7,778.00,1.6
2020-12-21,05:25:00,DRY,3.75,9.45,22.0,778.00,0.9
2020-12-21,05:30:00,DRY,4.17,9.70,22.0,778.00,0.9
2020-12-21,05:35:00,DRY,3.90,9.50,22.0,778.00,1.2
2020-12-21,05:40:00,DRY,3.27,9.43,22.3,778.00,1.2
2020-12-21,05:45:00,DRY,3.25,9.40,22.5,778.00,0.9
2020-12-21,05:50:00,DRY,3.67,9.23,23.0,778.00,1.1
2020-12-21,05:55:00,DRY,3.85,9.55,22.0,778.00,1.4
2020-12-21,06:00:00,DRY,3.83,9.83,21.0,778.00,1.2
2020-12-21,06:05:00,DRY,3.55,9.90,22.0,778.00,1.8
2020-12-21,06:10:00,DRY,4.67,9.57,22.0,778.00,1.4
2020-12-21,06:15:00,DRY,2.90,9.45,22.5,778.00,1.8
2020-12-21,06:20:00,DRY,3.77,9.17,22.7,778.00,1.1
2020-12-21,06:25:00,DRY,3.80,9.35,22.0,778.00,0.9
2020-12-21,06:30:00,DRY,3.20,9.53,21.3,778.00,0.6
2020-12-21,06:35:00,DRY,2.50,9.40,22.5,778.00,0.8
2020-12-21,06:40:00,DRY,2.67,9.10,23.0,778.00,0.9
2020-12-21,06:45:00,DRY,3.15,8.95,24.0,778.00,0.8
2020-12-21,06:50:00,DRY,2.50,8.93,23.7,778.00,1.0
2020-12-21,06:55:00,DRY,2.05,8.65,24.5,778.00,0.5
2020-12-21,07:00:00,DRY,3.83,8.73,24.0,778.00,1.0
2020-12-21,07:05:00,DRY,4.15,8.65,25.0,778.00,0.8
2020-12-21,07:10:00,DRY,2.53,8.50,25.0,778.00,1.1
2020-12-21,07:15:00,DRY,2.45,8.40,25.5,778.00,1.3
2020-12-21,07:20:00,DRY,2.67,8.47,25.3,778.00,1.2
2020-12-21,07:25:00,DRY,4.40,8.40,25.5,778.00,1.4
2020-12-21,07:30:00,DRY,3.33,8.47,24.7,778.00,1.1
2020-12-21,07:35:00,DRY,3.00,8.50,25.5,778.00,1.1
2020-12-21,07:40:00,DRY,2.57,8.43,24.3,778.00,1.1
2020-12-21,07:45:00,DRY,3.25,8.45,24.5,778.00,1.9
2020-12-21,07:50:00,DRY,2.77,8.47,23.7,778.00,3.0
2020-12-21,07:55:00,DRY,2.55,8.70,23.5,778.00,5.3
2020-12-21,08:00:00,DRY,3.73,8.77,22.7,778.00,6.9
2020-12-21,08:05:00,DRY,3.35,8.65,23.0,778.00,9.4
2020-12-21,08:10:00,DRY,3.60,8.53,24.0,778.00,11.2
2020-12-21,08:15:00,DRY,3.70,8.75,22.5,778.00,14.1
2020-12-21,08:20:00,DRY,1.90,8.97,22.3,778.00,14.8
2020-12-21,08:25:00,DRY,1.30,8.70,23.5,778.00,17.6
2020-12-21,08:30:00,DRY,0.83,8.30,24.3,778.00,19.4
2020-12-21,08:35:00,DRY,1.45,8.55,23.0,778.00,20.8
2020-12-21,08:40:00,DRY,1.40,8.80,24.0,778.00,29.9
2020-12-21,08:45:00,DRY,1.15,9.25,23.5,778.00,160.0
2020-12-21,08:50:00,DRY,1.70,9.33,24.3,778.00,184.0
2020-12-21,08:55:00,DRY,2.80,9.25,24.5,778.50,203.7
2020-12-21,09:00:00,DRY,3.10,9.03,25.3,778.33,222.4
2020-12-21,09:05:00,DRY,3.00,9.10,25.5,778.50,242.4
2020-12-21,09:10:00,DRY,2.57,9.17,25.7,779.00,260.7
2020-12-21,09:15:00,DRY,2.25,9.25,25.0,779.00,281.8
2020-12-21,09:20:00,DRY,1.80,9.57,26.0,779.00,300.4
2020-12-21,09:25:00,DRY,0.70,9.95,24.0,779.00,319.7
2020-12-21,09:30:00,DRY,1.77,10.20,23.3,779.00,338.9
2020-12-21,09:35:00,DRY,1.90,10.05,23.5,779.00,356.6
2020-12-21,09:40:00,DRY,1.20,10.07,23.7,779.00,374.9
2020-12-21,09:45:00,DRY,1.90,9.90,24.0,779.00,393.7
2020-12-21,09:50:00,DRY,0.90,9.63,25.3,779.00,412.4
2020-12-21,09:55:00,DRY,1.20,10.20,24.0,779.00,428.6
2020-12-21,10:00:00,DRY,0.93,10.47,23.0,779.00,446.7
2020-12-21,10:05:00,DRY,1.25,10.35,26.5,779.00,462.8
2020-12-21,10:10:00,DRY,1.57,10.40,26.7,779.00,480.3
2020-12-21,10:15:00,DRY,1.55,10.10,27.0,779.00,496.4
2020-12-21,10:20:00,DRY,0.73,10.53,27.0,779.00,512.1
2020-12-21,10:25:00,DRY,1.90,10.35,26.5,779.00,528.0
2020-12-21,10:30:00,DRY,0.60,10.60,26.7,779.00,542.8
2020-12-21,10:35:00,DRY,1.00,10.90,28.0,779.00,557.0
2020-12-21,10:40:00,DRY,1.23,10.50,29.0,779.00,571.8
2020-12-21,10:45:00,DRY,1.95,10.60,30.0,779.00,584.0
2020-12-21,10:50:00,DRY,0.93,10.40,30.3,779.00,598.1
2020-12-21,10:55:00,DRY,1.20,10.75,29.0,779.00,610.8
2020-12-21,11:00:00,DRY,1.33,10.97,28.3,779.00,623.6
2020-12-21,11:05:00,DRY,0.40,10.80,29.5,779.00,635.5
2020-12-21,11:10:00,DRY,1.30,10.73,31.3,779.00,647.8
2020-12-21,11:15:00,DRY,1.85,10.30,32.5,778.50,658.6
2020-12-21,11:20:00,DRY,1.33,10.47,29.7,778.33,668.1
2020-12-21,11:25:00,DRY,0.80,11.00,30.0,779.00,678.5
2020-12-21,11:30:00,DRY,0.97,11.07,30.3,778.00,687.6
2020-12-21,11:35:00,DRY,0.95,11.05,32.5,778.00,698.1
2020-12-21,11:40:00,DRY,1.07,10.70,31.3,778.00,706.5
2020-12-21,11:45:00,DRY,1.90,10.45,32.0,778.00,716.5
2020-12-21,11:50:00,DRY,2.33,9.97,31.7,778.00,723.3
2020-12-21,11:55:00,DRY,2.15,10.10,32.5,778.00,732.1
2020-12-21,12:00:00,DRY,2.60,10.07,30.7,778.00,738.0
2020-12-21,12:05:00,DRY,2.35,9.95,30.0,778.00,743.5
2020-12-21,12:10:00,DRY,2.07,9.83,29.3,778.00,749.2
2020-12-21,12:15:00,DRY,3.10,9.90,29.5,778.00,754.4
2020-12-21,12:20:00,DRY,2.73,9.87,29.0,778.00,759.0
2020-12-21,12:25:00,DRY,2.45,10.15,33.0,778.00,763.7
2020-12-21,12:30:00,DRY,0.80,10.77,27.7,778.00,768.9
2020-12-21,12:35:00,DRY,1.10,11.30,32.5,778.00,772.6
2020-12-21,12:40:00,DRY,1.07,11.70,32.0,778.00,774.5
2020-12-21,12:45:00,DRY,0.85,11.15,29.5,778.00,777.2
2020-12-21,12:50:00,DRY,0.67,11.57,28.7,778.00,778.4
2020-12-21,12:55:00,DRY,0.90,11.65,33.0,778.00,781.2
2020-12-21,13:00:00,DRY,0.70,11.80,30.7,778.00,782.3
2020-12-21,13:05:00,DRY,1.30,11.80,29.5,778.00,781.8
2020-12-21,13:10:00,DRY,1.27,12.03,30.7,778.00,781.3
2020-12-21,13:15:00,DRY,0.70,12.30,33.5,778.00,780.4
2020-12-21,13:20:00,DRY,0.73,12.57,34.0,778.00,780.2
2020-12-21,13:25:00,DRY,1.20,12.60,31.5,778.00,779.1
2020-12-21,13:30:00,DRY,2.20,12.30,36.0,778.00,776.8
2020-12-21,13:35:00,,,,,,
2020-12-21,13:40:00,DRY,1.13,11.97,36.3,777.33,769.5
2020-12-21,13:45:00,DRY,1.60,11.15,40.0,777.50,767.6
2020-12-21,13:50:00,DRY,0.87,10.73,39.3,777.33,761.0
2020-12-21,13:55:00,DRY,1.60,10.65,40.0,777.00,757.1
2020-12-21,14:00:00,DRY,1.13,10.57,39.3,777.00,751.5
2020-12-21,14:05:00,DRY,1.35,10.45,39.5,777.00,745.6
2020-12-21,14:10:00,DRY,1.30,10.33,39.3,777.00,741.7
2020-12-21,14:15:00,DRY,1.90,10.25,37.0,777.00,734.1
2020-12-21,14:20:00,DRY,1.27,10.17,34.7,777.00,726.9
2020-12-21,14:25:00,DRY,1.00,10.25,34.0,777.00,720.5
2020-12-21,14:30:00,DRY,0.77,10.40,34.3,777.00,713.2
2020-12-21,14:35:00,DRY,0.95,10.40,33.0,777.00,704.0
2020-12-21,14:40:00,DRY,1.07,10.47,29.7,777.00,696.2
2020-12-21,14:45:00,DRY,1.60,10.35,30.0,777.00,687.3
2020-12-21,14:50:00,DRY,1.40,10.23,34.3,777.00,675.4
2020-12-21,14:55:00,DRY,1.65,10.50,37.0,777.00,666.0
2020-12-21,15:00:00,DRY,1.70,10.23,37.0,777.00,654.4
2020-12-21,15:05:00,DRY,1.70,10.20,36.0,777.00,643.2
2020-12-21,15:10:00,DRY,1.50,10.20,35.0,777.00,631.8
2020-12-21,15:15:00,DRY,1.90,10.10,34.5,777.00,619.0
2020-12-21,15:20:00,DRY,1.80,9.83,32.3,777.00,606.3
2020-12-21,15:25:00,DRY,1.65,9.80,32.5,777.00,594.3
2020-12-21,15:30:00,DRY,0.77,9.93,31.7,777.00,580.0
2020-12-21,15:35:00,DRY,0.60,10.05,29.5,777.00,567.4
2020-12-21,15:40:00,DRY,0.73,10.20,31.0,777.00,553.4
2020-12-21,15:45:00,DRY,0.95,10.15,31.0,777.00,537.2
2020-12-21,15:50:00,DRY,1.03,10.10,28.3,777.00,523.5
2020-12-21,15:55:00,DRY,0.90,10.05,27.5,777.00,509.2
2020-12-21,16:00:00,DRY,0.90,10.03,29.0,777.00,492.9
2020-12-21,16:05:00,DRY,0.95,10.10,27.0,777.00,477.5
2020-12-21,16:10:00,DRY,0.73,10.10,25.7,777.00,460.5
2020-12-21,16:15:00,DRY,0.75,10.10,24.5,777.00,443.5
2020-12-21,16:20:00,DRY,0.57,10.13,27.0,777.00,426.2
2020-12-21,16:25:00,DRY,1.35,9.90,28.0,777.00,407.6
2020-12-21,16:30:00,DRY,1.27,9.63,27.0,777.00,389.6
2020-12-21,16:35:00,DRY,1.00,9.60,25.5,777.00,371.6
2020-12-21,16:40:00,DRY,1.10,9.73,26.3,777.00,353.9
2020-12-21,16:45:00,DRY,0.90,9.70,26.5,777.00,334.6
2020-12-21,16:50:00,DRY,1.33,9.47,26.0,777.00,315.0
2020-12-21,16:55:00,DRY,0.85,9.60,27.0,777.00,296.4
2020-12-21,17:00:00,DRY,1.53,9.40,25.7,777.00,277.2
2020-12-21,17:05:00,DRY,1.55,9.10,25.5,777.00,257.5
2020-12-21,17:10:00,DRY,1.57,9.23,26.0,777.00,239.0
2020-12-21,17:15:00,DRY,1.70,9.20,26.0,777.00,220.1
2020-12-21,17:20:00,DRY,1.33,9.20,24.0,777.00,200.6
2020-12-21,17:25:00,DRY,1.55,9.25,21.5,777.00,182.2
2020-12-21,17:30:00,DRY,1.60,9.10,23.0,777.00,164.3
2020-12-21,17:35:00,DRY,1.30,9.00,23.0,777.00,144.4
2020-12-21,17:40:00,DRY,1.60,8.90,23.0,777.00,118.1
2020-12-21,17:45:00,DRY,2.10,8.85,22.5,777.00,94.3
2020-12-21,17:50:00,DRY,1.63,8.77,23.0,777.00,72.3
2020-12-21,17:55:00,DRY,1.95,8.70,23.0,777.00,53.4
2020-12-21,18:00:00,DRY,2.03,8.70,23.0,777.00,37.2
2020-12-21,18:05:00,DRY,1.60,8.70,22.5,777.00,23.9
2020-12-21,18:10:00,DRY,1.33,8.60,23.0,777.00,17.3
2020-12-21,18:15:00,DRY,1.95,8.55,23.0,777.00,12.9
2020-12-21,18:20:00,DRY,1.80,8.53,23.0,777.00,8.7
2020-12-21,18:25:00,DRY,1.90,8.60,23.0,777.00,4.5
2020-12-21,18:30:00,DRY,2.03,8.60,23.0,777.00,3.4
2020-12-21,18:35:00,DRY,2.25,8.65,23.0,777.00,3.0
2020-12-21,18:40:00,DRY,1.80,8.53,23.0,777.00,1.3
2020-12-21,18:45:00,DRY,2.65,8.55,23.0,777.00,1.2
2020-12-21,18:50:00,DRY,2.30,8.53,23.0,777.33,1.1
2020-12-21,18:55:00,DRY,2.05,8.50,23.0,777.50,1.5
2020-12-21,19:00:00,DRY,2.07,8.57,22.7,777.33,0.8
2020-12-21,19:05:00,DRY,1.20,8.90,22.0,778.00,2.0
2020-12-21,19:10:00,DRY,1.70,8.83,22.0,778.00,1.2
2020-12-21,19:15:00,DRY,1.35,8.65,23.0,778.00,1.8
2020-12-21,19:20:00,DRY,2.33,8.90,22.3,778.00,2.1
2020-12-21,19:25:00,DRY,1.90,8.80,23.0,778.00,0.8
2020-12-21,19:30:00,DRY,1.93,8.47,23.7,778.00,0.7
2020-12-21,19:35:00,DRY,2.20,8.35,24.0,778.00,2.1
2020-12-21,19:40:00,DRY,2.37,8.30,24.0,778.00,2.0
2020-12-21,19:45:00,DRY,2.35,8.15,24.5,778.00,1.0
2020-12-21,19:50:00,DRY,2.60,8.10,24.7,778.00,0.9
2020-12-21,19:55:00,DRY,2.15,8.00,25.0,778.00,1.4
2020-12-21,20:00:00,DRY,2.27,7.97,24.7,778.00,0.3
2020-12-21,20:05:00,DRY,2.35,7.95,25.0,778.00,1.1
2020-12-21,20:10:00,DRY,2.53,8.03,25.0,778.00,1.3
2020-12-21,20:15:00,DRY,2.70,8.25,24.5,778.00,1.7
2020-12-21,20:20:00,DRY,2.13,8.30,24.7,778.00,2.2
2020-12-21,20:25:00,DRY,1.65,8.05,25.0,778.00,0.9
2020-12-21,20:30:00,DRY,1.60,8.00,25.0,778.00,1.3
2020-12-21,20:35:00,DRY,1.30,7.90,25.5,778.00,0.7
2020-12-21,20:40:00,DRY,2.60,7.97,25.0,778.00,0.8
2020-12-21,20:45:00,DRY,2.65,8.05,25.0,778.00,0.9
2020-12-21,20:50:00,DRY,2.20,8.00,25.3,778.00,1.4
2020-12-21,20:55:00,DRY,2.05,7.95,25.0,778.00,2.5
2020-12-21,21:00:00,DRY,1.97,8.10,25.0,778.00,0.9
2020-12-21,21:05:00,DRY,1.60,8.05,25.0,778.00,0.8
2020-12-21,21:10:00,DRY,2.13,8.03,24.7,778.00,1.3
2020-12-21,21:15:00,DRY,1.50,8.00,25.0,778.00,1.1
2020-12-21,21:20:00,DRY,2.47,8.03,24.3,778.00,1.1
2020-12-21,21:25:00,DRY,2.25,7.95,25.0,778.00,1.5
2020-12-21,21:30:00,DRY,2.23,7.90,25.0,778.00,1.4
2020-12-21,21:35:00,DRY,2.85,8.00,24.5,778.00,0.3
2020-12-21,21:40:00,DRY,2.53,8.10,24.7,778.00,1.1
2020-12-21,21:45:00,DRY,2.40,8.05,24.5,778.00,1.9
2020-12-21,21:50:00,DRY,3.13,8.07,24.7,778.00,1.2
2020-12-21,21:55:00,DRY,3.20,8.10,24.5,778.00,1.4
2020-12-21,22:00:00,DRY,2.77,8.07,25.3,778.00,1.2
2020-12-21,22:05:00,DRY,2.95,8.00,26.0,778.00,1.4
2020-12-21,22:10:00,DRY,3.50,8.20,25.3,778.00,1.4
2020-12-21,22:15:00,DRY,3.60,8.15,26.0,778.00,1.3
2020-12-21,22:20:00,DRY,3.33,8.40,25.3,778.00,1.2
2020-12-21,22:25:00,DRY,3.55,8.35,25.0,778.00,0.9
2020-12-21,22:30:00,DRY,3.97,8.27,25.0,778.00,1.1
2020-12-21,22:35:00,DRY,3.90,8.30,25.0,778.00,1.1
2020-12-21,22:40:00,DRY,3.50,8.37,25.0,778.00,1.6
2020-12-21,22:45:00,DRY,2.85,8.25,25.0,778.00,2.8
2020-12-21,22:50:00,DRY,3.80,8.30,26.3,778.00,1.2
2020-12-21,22:55:00,DRY,2.75,8.25,27.0,778.00,2.1
2020-12-21,23:00:00,DRY,3.13,8.33,27.0,778.00,1.7
2020-12-21,23:05:00,DRY,3.00,8.35,27.0,778.00,1.2
2020-12-21,23:10:00,DRY,2.77,8.33,26.3,778.00,1.1
2020-12-21,23:15:00,DRY,3.00,8.30,27.0,778.00,1.2
2020-12-21,23:20:00,DRY,3.53,8.23,26.3,778.00,1.0
2020-12-21,23:25:00,DRY,3.75,8.25,25.0,778.00,1.2
2020-12-21,23:30:00,DRY,4.03,8.40,24.0,778.00,1.2
2020-12-21,23:35:00,DRY,3.25,8.45,24.0,778.00,0.9
2020-12-21,23:40:00,DRY,3.73,8.40,24.3,778.00,1.4
2020-12-21,23:45:00,DRY,3.60,8.45,24.5,778.00,1.1
2020-12-21,23:50:00,DRY,2.83,8.47,24.3,778.00,0.9
2020-12-21,23:55:00,DRY,3.40,8.30,25.0,778.00,1.1
2020-12-22,00:00:00,DRY,3.27,8.27,25.7,778.00,1.5
2020-12-22,00:05:00,DRY,2.30,8.35,27.5,778.00,2.2
2020-12-22,00:10:00,DRY,3.03,8.43,25.3,777.67,1.0
2020-12-22,00:15:00,DRY,2.95,8.50,26.5,777.50,1.1
2020-12-22,00:20:00,DRY,3.47,8.27,28.0,777.00,0.9
2020-12-22,00:25:00,DRY,3.25,8.40,27.5,777.00,1.0
2020-12-22,00:30:00,DRY,3.63,8.73,28.7,777.00,1.5
2020-12-22,00:35:00,DRY,3.90,8.70,30.0,777.00,1.5
2020-12-22,00:40:00,DRY,3.70,8.70,30.0,777.00,1.2
2020-12-22,00:45:00,DRY,3.50,8.75,29.0,777.00,1.4
2020-12-22,00:50:00,DRY,3.17,8.70,28.3,777.00,1.1
2020-12-22,00:55:00,DRY,3.40,8.50,27.5,777.00,1.2
2020-12-22,01:00:00,DRY,3.80,8.80,26.3,777.00,1.1
2020-12-22,01:05:00,DRY,3.50,8.55,29.5,777.00,1.2
2020-12-22,01:10:00,DRY,3.50,8.47,29.0,777.00,1.2
2020-12-22,01:15:00,DRY,3.55,8.55,29.0,777.00,0.9
2020-12-22,01:20:00,DRY,3.10,8.57,30.0,777.00,1.3
2020-12-22,01:25:00,DRY,2.95,8.50,28.5,777.00,1.2
2020-12-22,01:30:00,DRY,2.83,8.53,29.3,777.00,1.3
2020-12-22,01:35:00,DRY,2.90,8.45,29.5,777.00,1.1
2020-12-22,01:40:00,DRY,2.90,8.47,29.3,777.00,1.3
2020-12-22,01:45:00,DRY,2.35,8.65,29.0,777.00,1.0
2020-12-22,01:50:00,DRY,2.30,8.97,26.3,777.00,1.2
2020-12-22,01:55:00,DRY,2.65,8.75,28.0,777.00,1.6
2020-12-22,02:00:00,DRY,3.07,8.53,29.0,777.00,1.4
2020-12-22,02:05:00,DRY,2.80,8.50,29.0,777.00,1.8
2020-12-22,02:10:00,DRY,2.30,8.43,29.3,777.00,1.0
2020-12-22,02:15:00,DRY,2.55,8.65,29.0,777.00,0.2
2020-12-22,02:20:00,DRY,2.70,8.57,29.3,777.00,0.9
2020-12-22,02:25:00,DRY,2.65,8.35,30.0,777.00,0.7
2020-12-22,02:30:00,DRY,2.47,8.30,30.3,777.00,1.1
2020-12-22,02:35:00,DRY,2.50,8.40,30.0,777.00,2.0
2020-12-22,02:40:00,DRY,3.13,8.43,30.3,777.00,1.4
2020-12-22,02:45:00,DRY,3.00,8.60,30.0,777.00,1.2
2020-12-22,02:50:00,DRY,2.73,8.43,29.0,777.00,1.5
2020-12-22,02:55:00,DRY,3.50,8.40,28.0,777.00,0.8
2020-12-22,03:00:00,DRY,3.00,8.50,27.7,777.00,1.0
2020-12-22,03:05:00,DRY,2.80,8.65,27.0,777.00,0.8
2020-12-22,03:10:00,DRY,2.07,8.50,27.3,776.67,1.4
2020-12-22,03:15:00,DRY,2.30,8.40,28.5,776.00,0.5
2020-12-22,03:20:00,DRY,1.77,8.43,28.7,776.00,1.3
2020-12-22,03:25:00,DRY,1.70,7.95,30.0,776.50,0.7
2020-12-22,03:30:00,DRY,2.10,7.93,30.7,776.33,1.8
2020-12-22,03:35:00,DRY,1.90,8.10,31.0,776.50,0.9
2020-12-22,03:40:00,DRY,2.30,8.37,28.0,776.00,1.4
2020-12-22,03:45:00,DRY,2.80,8.65,26.0,776.00,0.7
2020-12-22,03:50:00,DRY,2.07,8.50,28.0,776.00,1.2
2020-12-22,03:55:00,DRY,2.00,8.30,29.0,776.00,1.4
2020-12-22,04:00:00,DRY,1.67,8.33,28.7,776.00,1.1
2020-12-22,04:05:00,DRY,2.05,7.95,30.0,776.00,1.9
2020-12-22,04:10:00,DRY,2.17,8.27,29.7,776.00,1.8
2020-12-22,04:15:00,DRY,2.10,8.30,29.0,776.00,1.0
2020-12-22,04:20:00,DRY,2.00,8.10,30.0,776.00,1.5
2020-12-22,04:25:00,DRY,2.10,7.95,30.5,776.00,0.7
2020-12-22,04:30:00,DRY,2.03,8.13,30.7,776.00,1.3
2020-12-22,04:35:00,DRY,2.05,8.30,30.0,776.00,0.8
2020-12-22,04:40:00,DRY,2.03,8.53,29.7,776.00,1.4
2020-12-22,04:45:00,DRY,1.50,8.20,29.5,776.00,1.4
2020-12-22,04:50:00,DRY,1.70,8.37,28.3,776.00,1.6
2020-12-22,04:55:00,DRY,1.80,8.25,30.0,776.00,0.3
2020-12-22,05:00:00,DRY,2.20,8.33,29.3,776.00,1.0
2020-12-22,05:05:00,DRY,1.85,8.50,29.5,776.00,1.6
2020-12-22,05:10:00,DRY,2.10,8.43,30.0,776.00,1.4
2020-12-22,05:15:00,DRY,2.45,8.25,30.5,776.00,0.6
2020-12-22,05:20:00,DRY,2.27,8.17,31.0,776.00,1.0
2020-12-22,05:25:00,DRY,2.15,8.05,31.5,776.00,1.1
2020-12-22,05:30:00,DRY,1.67,8.33,30.7,776.00,0.9
2020-12-22,05:35:00,DRY,1.90,8.65,30.0,776.00,1.2
2020-12-22,05:40:00,DRY,1.70,8.43,31.0,776.00,1.3
2020-12-22,05:45:00,DRY,1.80,8.45,30.0,776.00,0.6
2020-12-22,05:50:00,DRY,1.60,8.80,28.7,776.00,1.3
2020-12-22,05:55:00,DRY,1.80,8.85,28.0,776.00,2.2
2020-12-22,06:00:00,DRY,1.93,8.67,29.0,776.00,1.2
2020-12-22,06:05:00,DRY,1.95,8.15,30.5,776.00,0.8
2020-12-22,06:10:00,DRY,1.97,8.07,30.7,776.00,1.1
2020-12-22,06:15:00,DRY,2.20,8.35,31.0,776.00,1.5
2020-12-22,06:20:00,DRY,2.50,7.63,33.7,776.00,1.7
2020-12-22,06:25:00,DRY,2.00,7.70,33.5,776.00,1.0
2020-12-22,06:30:00,DRY,2.30,7.73,34.0,776.00,1.3
2020-12-22,06:35:00,DRY,1.60,8.05,32.5,776.00,1.9
2020-12-22,06:40:00,DRY,1.13,8.43,30.0,776.00,1.8
2020-12-22,06:45:00,DRY,0.90,8.20,30.0,776.00,1.4
2020-12-22,06:50:00,DRY,1.23,8.47,30.3,776.00,1.3
2020-12-22,06:55:00,DRY,1.50,8.35,31.0,776.00,1.2
2020-12-22,07:00:00,DRY,0.87,8.67,28.7,776.00,1.7
2020-12-22,07:05:00,DRY,1.20,8.90,28.0,776.00,2.1
2020-12-22,07:10:00,DRY,1.47,8.67,28.7,776.00,1.0
2020-12-22,07:15:00,DRY,0.55,8.45,28.5,776.00,1.0
2020-12-22,07:20:00,DRY,0.37,8.33,28.0,776.00,1.2
2020-12-22,07:25:00,DRY,0.40,8.10,29.0,776.00,0.9
2020-12-22,07:30:00,DRY,0.37,8.13,29.0,776.00,1.2
2020-12-22,07:35:00,DRY,0.75,8.20,29.0,776.00,1.6
2020-12-22,07:40:00,DRY,1.77,7.50,31.0,776.00,1.0
2020-12-22,07:45:00,DRY,1.60,6.70,34.0,776.00,2.1
2020-12-22,07:50:00,DRY,1.67,7.70,31.7,776.00,2.5
2020-12-22,07:55:00,DRY,1.95,7.75,32.0,776.00,4.7
2020-12-22,08:00:00,DRY,2.17,6.93,34.0,776.00,8.1
2020-12-22,08:05:00,DRY,1.65,6.85,33.5,776.00,9.3
2020-12-22,08:10:00,DRY,1.40,8.03,30.0,776.00,11.4
2020-12-22,08:15:00,DRY,1.35,8.35,29.5,777.00,12.7
2020-12-22,08:20:00,DRY,1.33,8.47,28.3,777.00,15.9
2020-12-22,08:25:00,DRY,1.55,7.95,29.5,777.00,18.3
2020-12-22,08:30:00,DRY,1.60,7.80,29.7,777.00,19.3
2020-12-22,08:35:00,DRY,1.65,7.85,29.0,777.00,22.4
2020-12-22,08:40:00,DRY,1.67,7.93,28.3,777.00,26.6
2020-12-22,08:45:00,DRY,1.55,8.10,28.0,777.00,147.3
2020-12-22,08:50:00,DRY,1.40,8.10,28.0,777.00,183.4
2020-12-22,08:55:00,DRY,1.60,8.10,28.0,777.00,201.9
2020-12-22,09:00:00,DRY,1.87,8.30,27.7,777.00,221.6
2020-12-22,09:05:00,DRY,1.95,8.15,28.5,777.00,240.8
2020-12-22,09:10:00,DRY,2.33,8.40,28.0,777.00,260.4
2020-12-22,09:15:00,DRY,2.20,9.20,27.0,777.00,280.2
2020-12-22,09:20:00,DRY,2.23,9.57,25.3,777.00,299.3
2020-12-22,09:25:00,DRY,2.20,9.55,27.0,777.00,319.0
2020-12-22,09:30:00,DRY,2.37,9.93,28.7,777.00,337.2
2020-12-22,09:35:00,DRY,1.50,10.10,29.0,777.00,354.8
2020-12-22,09:40:00,DRY,1.33,10.07,28.3,777.00,373.4
2020-12-22,09:45:00,DRY,2.40,10.05,25.5,777.00,391.2
2020-12-22,09:50:00,DRY,2.20,9.90,28.0,777.00,409.7
2020-12-22,09:55:00,DRY,2.10,9.70,31.0,777.00,425.4
2020-12-22,10:00:00,DRY,2.03,9.73,30.7,777.00,444.2
2020-12-22,10:05:00,DRY,1.65,10.00,30.5,777.00,459.9
2020-12-22,10:10:00,DRY,0.63,10.30,26.0,777.00,477.6
2020-12-22,10:15:00,DRY,1.05,10.65,26.5,777.00,493.9
2020-12-22,10:20:00,DRY,1.57,10.40,27.0,777.00,509.7
2020-12-22,10:25:00,DRY,1.00,10.50,27.0,777.00,524.1
2020-12-22,10:30:00,DRY,0.60,10.73,28.3,777.00,539.5
2020-12-22,10:35:00,DRY,0.30,11.35,26.0,777.00,555.0
2020-12-22,10:40:00,DRY,0.87,11.43,25.7,777.00,569.3
2020-12-22,10:45:00,DRY,0.55,11.70,27.0,777.00,582.8
2020-12-22,10:50:00,DRY,0.67,11.07,33.3,777.00,596.0
2020-12-22,10:55:00,DRY,1.55,10.55,37.5,777.00,608.5
2020-12-22,11:00:00,DRY,1.63,10.43,37.3,777.00,620.2
2020-12-22,11:05:00,DRY,1.70,10.35,38.0,777.00,632.6
2020-12-22,11:10:00,DRY,1.73,10.33,36.7,777.00,644.0
2020-12-22,11:15:00,DRY,1.35,10.75,40.0,777.00,655.2
2020-12-22,11:20:00,DRY,2.77,9.57,44.3,777.00,666.3
2020-12-22,11:25:00,DRY,2.30,8.85,47.0,777.00,676.5